When you browse on this site, cookies collect data to enhance your experience and personalize the content and advertising you see.
Visit our Privacy Policy to learn more. By continuing to use the site, you agree to this use of cookies and data.
  • In Sweden
  • List of Countries
  • For 7 days
  • Water Temperature
  • Weather Map
  • Weather Widgets
  • user-avatar
    Login

    Hourly Weather Carrieres-sous-Poissy

    Today, 14 November, Thursday

    Time Temperature Precipitation Wind Pressure Humidity
    00:00 +5°C° 0.1 mm 7 mps 743 mmHg 77%
    01:00 +4°C° 1.1 mm 6 mps 743 mmHg 80%
    02:00 +4°C° 1.1 mm 6 mps 742 mmHg 82%
    03:00 +5°C° 1.1 mm 5 mps 742 mmHg 85%
    04:00 +5°C° 0.1 mm 5 mps 742 mmHg 85%
    05:00 +4°C° 0.1 mm 4 mps 743 mmHg 85%
    06:00 +4°C° 0.1 mm 3 mps 743 mmHg 86%
    07:00 +4°C° 0 mm 3 mps 744 mmHg 85%
    08:00 +4°C° 0 mm 4 mps 744 mmHg 85%
    09:00 +4°C° 0 mm 4 mps 745 mmHg 84%
    10:00 +5°C° 0 mm 3 mps 745 mmHg 80%
    11:00 +7°C° 0 mm 3 mps 745 mmHg 76%
    12:00 +8°C° 0 mm 3 mps 745 mmHg 72%
    13:00 +8°C° 0 mm 2 mps 746 mmHg 72%
    14:00 +8°C° 0 mm 2 mps 746 mmHg 72%
    15:00 +8°C° 0 mm 2 mps 746 mmHg 71%
    16:00 +7°C° 0 mm 2 mps 746 mmHg 75%
    17:00 +7°C° 0 mm 1 mps 746 mmHg 78%
    18:00 +7°C° 0 mm 1 mps 747 mmHg 82%
    19:00 +6°C° 0 mm 1 mps 747 mmHg 84%
    20:00 +5°C° 0 mm 2 mps 747 mmHg 86%
    21:00 +5°C° 0 mm 2 mps 747 mmHg 88%
    22:00 +5°C° 0 mm 2 mps 747 mmHg 89%
    23:00 +5°C° 0 mm 2 mps 747 mmHg 90%

    Tomorrow, 15 November, Friday

    Time Temperature Precipitation Wind Pressure Humidity
    00:00 +5°C° 0 mm 2 mps 747 mmHg 90%
    01:00 +5°C° 0 mm 2 mps 747 mmHg 90%
    02:00 +5°C° 0 mm 2 mps 747 mmHg 90%
    03:00 +4°C° 0 mm 3 mps 747 mmHg 90%
    04:00 +4°C° 0.2 mm 3 mps 747 mmHg 89%
    05:00 +4°C° 0.2 mm 3 mps 747 mmHg 89%
    06:00 +4°C° 0.2 mm 3 mps 747 mmHg 89%
    07:00 +4°C° 0.5 mm 3 mps 747 mmHg 89%
    08:00 +4°C° 0.5 mm 3 mps 747 mmHg 90%
    09:00 +3°C° 0.5 mm 3 mps 747 mmHg 90%
    10:00 +4°C° 1.5 mm 2 mps 747 mmHg 91%
    11:00 +4°C° 1.5 mm 2 mps 747 mmHg 92%
    12:00 +4°C° 1.5 mm 1 mps 747 mmHg 93%
    13:00 +4°C° 0.5 mm 1 mps 747 mmHg 94%
    14:00 +4°C° 0.5 mm 1 mps 747 mmHg 94%
    15:00 +4°C° 0.5 mm 0 mps 747 mmHg 94%
    16:00 +5°C° 0.2 mm 1 mps 747 mmHg 93%
    17:00 +5°C° 0.2 mm 1 mps 747 mmHg 93%
    18:00 +5°C° 0.2 mm 1 mps 748 mmHg 92%
    19:00 +4°C° 0.3 mm 2 mps 748 mmHg 92%
    20:00 +4°C° 0.3 mm 2 mps 748 mmHg 92%
    21:00 +4°C° 0.3 mm 3 mps 749 mmHg 92%
    22:00 +4°C° 0.2 mm 3 mps 749 mmHg 91%
    23:00 +4°C° 0.2 mm 3 mps 749 mmHg 90%

    Day after tomorrow, 16 November, Saturday

    Time Temperature Precipitation Wind Pressure Humidity
    00:00 +4°C° 0.2 mm 3 mps 750 mmHg 89%
    01:00 +4°C° 0 mm 3 mps 750 mmHg 88%
    02:00 +4°C° 0 mm 3 mps 750 mmHg 88%
    03:00 +4°C° 0 mm 3 mps 750 mmHg 88%
    04:00 +4°C° 0 mm 3 mps 751 mmHg 87%
    05:00 +4°C° 0 mm 3 mps 751 mmHg 87%
    06:00 +4°C° 0 mm 3 mps 751 mmHg 87%
    07:00 +5°C° 0 mm 2 mps 752 mmHg 86%
    08:00 +5°C° 0 mm 2 mps 753 mmHg 85%
    09:00 +5°C° 0 mm 2 mps 753 mmHg 84%
    10:00 +6°C° 0 mm 2 mps 753 mmHg 80%
    11:00 +7°C° 0 mm 2 mps 754 mmHg 75%
    12:00 +8°C° 0 mm 2 mps 754 mmHg 71%
    13:00 +8°C° 0 mm 2 mps 754 mmHg 71%
    14:00 +8°C° 0 mm 2 mps 754 mmHg 71%
    15:00 +8°C° 0 mm 2 mps 754 mmHg 71%
    16:00 +8°C° 0 mm 1 mps 755 mmHg 74%
    17:00 +7°C° 0 mm 1 mps 755 mmHg 78%
    18:00 +7°C° 0 mm 1 mps 755 mmHg 82%
    19:00 +6°C° 0 mm 1 mps 756 mmHg 83%
    20:00 +6°C° 0 mm 1 mps 756 mmHg 84%
    21:00 +6°C° 0 mm 1 mps 756 mmHg 85%
    22:00 +6°C° 0 mm 1 mps 756 mmHg 85%
    23:00 +6°C° 0 mm 1 mps 756 mmHg 85%

    17 November, Sunday

    Time Temperature Precipitation Wind Pressure Humidity
    00:00 +5°C° 0 mm 1 mps 756 mmHg 86%
    01:00 +5°C° 0 mm 1 mps 756 mmHg 86%
    02:00 +5°C° 0 mm 1 mps 756 mmHg 87%
    03:00 +5°C° 0 mm 1 mps 756 mmHg 87%
    04:00 +5°C° 0 mm 1 mps 756 mmHg 88%
    05:00 +4°C° 0 mm 1 mps 756 mmHg 88%
    06:00 +3°C° 0 mm 0 mps 756 mmHg 88%
    07:00 +5°C° 0 mm 1 mps 756 mmHg 86%
    08:00 +5°C° 0 mm 1 mps 756 mmHg 84%
    09:00 +6°C° 0 mm 1 mps 756 mmHg 82%
    10:00 +7°C° 0 mm 1 mps 756 mmHg 77%
    11:00 +8°C° 0 mm 1 mps 756 mmHg 73%
    12:00 +7°C° 0 mm 2 mps 755 mmHg 69%
    13:00 +7°C° 0 mm 2 mps 755 mmHg 70%
    14:00 +7°C° 0 mm 2 mps 755 mmHg 72%
    15:00 +7°C° 0 mm 2 mps 754 mmHg 73%
    16:00 +7°C° 0 mm 3 mps 754 mmHg 77%
    17:00 +5°C° 0 mm 3 mps 754 mmHg 80%
    18:00 +4°C° 0 mm 3 mps 754 mmHg 84%
    19:00 +4°C° 0 mm 3 mps 753 mmHg 85%
    20:00 +4°C° 0 mm 3 mps 753 mmHg 86%
    21:00 +4°C° 0 mm 3 mps 753 mmHg 87%
    22:00 +4°C° 0.1 mm 3 mps 753 mmHg 88%
    23:00 +4°C° 0.1 mm 3 mps 752 mmHg 88%

    18 November, Monday

    Time Temperature Precipitation Wind Pressure Humidity
    00:00 +5°C° 0.1 mm 3 mps 752 mmHg 88%
    01:00 +5°C° 0.2 mm 3 mps 752 mmHg 89%
    02:00 +5°C° 0.2 mm 3 mps 751 mmHg 90%
    03:00 +5°C° 0.2 mm 3 mps 751 mmHg 91%
    04:00 +5°C° 0.2 mm 3 mps 751 mmHg 92%
    05:00 +5°C° 0.2 mm 3 mps 751 mmHg 92%
    06:00 +5°C° 0.2 mm 3 mps 751 mmHg 93%
    07:00 +5°C° 0.1 mm 3 mps 751 mmHg 92%
    08:00 +5°C° 0.1 mm 3 mps 751 mmHg 90%
    09:00 +7°C° 0.1 mm 3 mps 751 mmHg 89%
    10:00 +7°C° 0.3 mm 3 mps 752 mmHg 88%
    11:00 +7°C° 0.3 mm 3 mps 752 mmHg 87%
    12:00 +7°C° 0.3 mm 4 mps 752 mmHg 85%
    13:00 +7°C° 0.2 mm 4 mps 752 mmHg 83%
    14:00 +8°C° 0.2 mm 3 mps 752 mmHg 80%
    15:00 +8°C° 0.2 mm 3 mps 752 mmHg 77%
    16:00 +8°C° 0.2 mm 3 mps 752 mmHg 79%
    17:00 +7°C° 0.2 mm 3 mps 752 mmHg 81%
    18:00 +7°C° 0.2 mm 3 mps 752 mmHg 83%
    19:00 +5°C° 0.1 mm 3 mps 752 mmHg 86%
    20:00 +5°C° 0.1 mm 3 mps 752 mmHg 88%
    21:00 +4°C° 0.1 mm 3 mps 752 mmHg 90%
    22:00 +4°C° 0 mm 3 mps 752 mmHg 90%
    23:00 +4°C° 0 mm 3 mps 752 mmHg 89%

    19 November, Tuesday

    Time Temperature Precipitation Wind Pressure Humidity
    00:00 +4°C° 0 mm 3 mps 752 mmHg 89%
    01:00 +4°C° 0 mm 3 mps 752 mmHg 87%
    02:00 +4°C° 0 mm 4 mps 751 mmHg 85%
    03:00 +4°C° 0 mm 4 mps 751 mmHg 84%
    04:00 +5°C° 0.3 mm 5 mps 750 mmHg 85%
    05:00 +4°C° 0.3 mm 6 mps 750 mmHg 86%
    06:00 +4°C° 0.3 mm 7 mps 749 mmHg 88%
    07:00 +5°C° 0.4 mm 7 mps 749 mmHg 86%
    08:00 +5°C° 0.4 mm 7 mps 749 mmHg 85%
    09:00 +6°C° 0.4 mm 7 mps 749 mmHg 84%
    10:00 +7°C° 0 mm 6 mps 749 mmHg 79%
    11:00 +8°C° 0 mm 6 mps 749 mmHg 74%
    12:00 +9°C° 0 mm 6 mps 749 mmHg 69%
    13:00 +9°C° 0 mm 5 mps 749 mmHg 69%
    14:00 +8°C° 0 mm 4 mps 749 mmHg 68%
    15:00 +8°C° 0 mm 4 mps 749 mmHg 68%
    16:00 +8°C° 0 mm 4 mps 749 mmHg 71%
    17:00 +7°C° 0 mm 4 mps 749 mmHg 74%
    18:00 +6°C° 0 mm 4 mps 749 mmHg 76%
    19:00 +6°C° 0 mm 5 mps 749 mmHg 79%
    20:00 +6°C° 0 mm 5 mps 749 mmHg 81%
    21:00 +6°C° 0 mm 5 mps 749 mmHg 83%
    22:00 +7°C° 0.3 mm 6 mps 749 mmHg 84%
    23:00 +7°C° 0.3 mm 6 mps 749 mmHg 84%
    Show more